This is the latest recevied weather packets stored in our database for station/object WW3TRG. If no packets are shown the sender has not sent any weather packets the latest 1 day(s).
| Time | Temp. | Humidity | Pressure | Rain* | Wind** | Luminosity | Snow |
|---|---|---|---|---|---|---|---|
| 1778027855 | 18.89° C | 67% | 1007.5 hPa | 0 mm | 0 m/s | 0 W/m² | - |
| 1778027551 | 19.44° C | 67% | 1007.5 hPa | 0 mm | 0.89 m/s, 113° | 0 W/m² | - |
| 1778027247 | 19.44° C | 65% | 1007.5 hPa | 0 mm | 0 m/s | 0 W/m² | - |
| 1778026944 | 20° C | 65% | 1007.2 hPa | 0 mm | 0 m/s | 0 W/m² | - |
| 1778026640 | 20° C | 64% | 1007.2 hPa | 0 mm | 0 m/s | 0 W/m² | - |
| 1778026337 | 20.56° C | 59% | 1007.1 hPa | 0 mm | 0 m/s | 0 W/m² | - |
| 1778026034 | 21.11° C | 59% | 1007 hPa | 0 mm | 0 m/s | 0 W/m² | - |
| 1778025732 | 21.67° C | 58% | 1006.9 hPa | 0 mm | 0 m/s | 0 W/m² | - |
| 1778025429 | 22.22° C | 54% | 1007 hPa | 0 mm | 0 m/s | 0 W/m² | - |
| 1778025127 | 22.22° C | 52% | 1007 hPa | 0 mm | 0 m/s | 0 W/m² | - |
| 1778024823 | 22.78° C | 50% | 1007.1 hPa | 0 mm | 0 m/s | 2 W/m² | - |
| 1778024520 | 23.33° C | 48% | 1007 hPa | 0 mm | 0 m/s | 5 W/m² | - |
| 1778024217 | 23.33° C | 48% | 1006.8 hPa | 0 mm | 1.34 m/s, 25° | 11 W/m² | - |
| 1778023915 | 23.33° C | 50% | 1006.8 hPa | 0 mm | 0 m/s | 18 W/m² | - |
| 1778023612 | 23.89° C | 48% | 1006.6 hPa | 0 mm | 0 m/s | 22 W/m² | - |
| 1778023310 | 23.89° C | 48% | 1007 hPa | 0 mm | 0 m/s | 22 W/m² | - |
| 1778023006 | 23.89° C | 49% | 1006.8 hPa | 0 mm | 0 m/s | 18 W/m² | - |
| 1778022705 | 24.44° C | 44% | 1006.8 hPa | 0 mm | 0.89 m/s, 212° | 18 W/m² | - |
| 1778022403 | 25° C | 43% | 1006.6 hPa | 0 mm | 1.34 m/s, 340° | 22 W/m² | - |
| 1778022099 | 24.44° C | 45% | 1006.8 hPa | 0 mm | 0 m/s | 21 W/m² | - |
| 1778021795 | 25° C | 45% | 1006.5 hPa | 0 mm | 0 m/s | 18 W/m² | - |
| 1778021491 | 25.56° C | 42% | 1006.5 hPa | 0 mm | 2.24 m/s, 288° | 17 W/m² | - |
| 1778021188 | 25.56° C | 44% | 1006.3 hPa | 0 mm | 0.89 m/s, 132° | 20 W/m² | - |
| 1778020886 | 25.56° C | 41% | 1006.1 hPa | 0 mm | 1.34 m/s, 180° | 22 W/m² | - |
| 1778020583 | 25.56° C | 42% | 1006.3 hPa | 0 mm | 0 m/s | 29 W/m² | - |
* Rain latest hour (hover to see other rain measurements)
** Current wind speed in m/s (hover to see current wind gust speed)